Satellite-Ground Cal/Val Site Overpasses Predictions

Prediction of Satellite NPP Overpassing Cal/Val Site: Antarctic Dome C

Ground Cal/Val Site Location: Latitude: -75.10, Longitude: 123.35; Satellite-Ground Site NADIR distance within 100 km.

Table of predicted overpasses for the next 14.0 days since TLE Epoch: 5/7/2025
Interval Starting Time Ending Time Minimum Distance Time Minimum Distance (km)
1 05/08/2025 07:32:52 05/08/2025 07:33:21 05/08/2025 07:33:06 2.34
2 05/11/2025 14:56:23 05/11/2025 14:56:51 05/11/2025 14:56:37 25.65
3 05/12/2025 14:37:40 05/12/2025 14:37:57 05/12/2025 14:37:49 81.42
4 05/13/2025 07:39:15 05/13/2025 07:39:42 05/13/2025 07:39:29 34.40
5 05/14/2025 07:20:31 05/14/2025 07:20:50 05/14/2025 07:20:40 75.65
6 05/16/2025 15:02:48 05/16/2025 15:03:11 05/16/2025 15:02:59 62.95
7 05/17/2025 14:43:57 05/17/2025 14:44:23 05/17/2025 14:44:10 46.35
8 05/18/2025 07:45:40 05/18/2025 07:46:01 05/18/2025 07:45:50 69.60
